Regional Weather Roundup
Issued by NWS

Home | Current Version | Previous Version | Text Only | Print | Product List | Glossary Off
Versions: 1 2 3 4 5 6 7 8 9 10 11 12 13 14 15 16 17 18 19 20 21 22 23 24 25 26 27 28 29 30 31 32 33 34 35 36 37 38 39 40 41 42 43 44 45 46 47 48 49 50

000
ASUS43 KLSX 290059
RWRMO

WEATHER SUMMARY FOR MISSOURI
NATIONAL WEATHER SERVICE SPRINGFIELD MO
800 PM CDT TUE JUL 28 2015

NOTE: "FAIR" INDICATES FEW OR NO CLOUDS BELOW 12,000 FEET WITH NO
       SIGNIFICANT WEATHER AND/OR OBSTRUCTIONS TO VISIBILITY.
       CURRENT SKY AND/OR WEATHER CONDITIONS ARE NOT AVAILABLE FOR
       CHILLICOTHE AND FARMINGTON.

MOZ001>031-035>038-043-044-053-054-290200-
...NORTHERN AND WESTERN MISSOURI...

CITY           SKY/WX    TMP DP  RH WIND       PRES   REMARKS
KANSAS CTY INT PTCLDY    86  73  65 S10       29.87R HX  93
KANSAS C DTWN  CLEAR     91  70  49 S10       29.85R HX  96
LEE`S SUMMIT   CLEAR     89  70  53 S8        29.89R HX  94
ST JOSEPH      PTCLDY    87  76  69 S9        29.83F HX  97
CHILLICOTHE      N/A     89  76  65 S5        29.88F HX 100
KIRKSVILLE     CLEAR     85  77  77 S7        29.91F HX  95

$$
MOZ066>068-077>081-088>096-101>105-290200-
...SOUTHWEST MISSOURI...

CITY           SKY/WX    TMP DP  RH WIND       PRES   REMARKS
SPRINGFIELD    CLEAR     87  74  64 SW7       29.94F HX  95
JOPLIN         CLEAR     88  73  61 S9        29.92F HX  95

$$
MOZ032>034-039>042-045>050-055>058-069>072-290200-
...CENTRAL MISSOURI...

CITY           SKY/WX    TMP DP  RH WIND       PRES   REMARKS
COLUMBIA       CLEAR     86  78  77 SW6       29.92R HX  98
JEFFERSON CITY CLEAR     91  75  59 SW5       29.90R HX 101
ROLLA          CLEAR     85  77  77 S7        29.94R HX  95
SEDALIA        CLEAR     89  74  60 S8        29.92R HX  98
OSAGE BEACH    CLEAR     90  73  58 SW5       29.93R HX  98

$$
MOZ051-052-059>065-290200-
...EAST CENTRAL MISSOURI...

CITY           SKY/WX    TMP DP  RH WIND       PRES   REMARKS
ST LOUIS INTL  MOCLDY    93  74  53 S3        29.92R HX 103
SPIRIT OF STL  MOCLDY    90  82  77 S5        29.90R HX 111
ST CHARLES     MOCLDY    86  80  82 E6        29.90R HX 101

$$
MOZ072>076-082>087-097>100-106>115-290200-
...SOUTH CENTRAL AND SOUTHEAST MISSOURI...

CITY           SKY/WX    TMP DP  RH WIND       PRES   REMARKS
CAPE GIRARDEAU CLEAR     86  79  79 S5        29.92S HX  99
FARMINGTON     PTCLDY    84  81  89 CALM      29.99R HX  98
POPLAR BLUFF   CLEAR     88  80  77 S6        29.91R HX 104
WEST PLAINS    CLEAR     87  75  67 S5        29.97F HX  96

$$



USA.gov is the U.S. government's official web portal to all federal, state and local government web resources and services.